Wind_Speed
26 29 32 33 32 33 34 33 33 34 34 33 33 38 39 39 41 40 40 40 43 71 72 65 59 61 56 56 54 57 54 52 46 47 57 53 49 47 41 39 39 42 41 34
25 25 30 32 34 35 36 37 37 37 37 37 36 36 38 37 40 41 41 41 44 48 72 67 67 65 62 60 58 56 59 59 55 54 54 55 55 54 50 51 46 43 43 38
25 27 28 30 33 34 36 37 39 39 40 40 39 39 39 40 41 44 43 43 44 46 49 51 72 72 74 64 63 61 60 62 61 59 58 57 59 56 58 55 52 50 43 45
27 27 28 29 30 31 33 35 37 38 39 39 39 39 38 40 42 45 45 45 47 50 51 53 54 57 71 85 77 72 70 64 62 64 67 66 62 60 58 55 54 53 50 46
29 29 29 30 30 31 31 33 35 36 37 37 36 39 38 37 40 42 45 46 47 49 53 58 58 59 61 61 62 66 79 74 70 71 70 68 66 65 61 62 59 53 51 53
27 30 28 30 31 31 31 33 34 35 34 34 32 34 34 32 35 37 40 43 44 48 52 56 59 62 64 64 64 65 64 68 70 83 77 77 73 71 66 67 63 63 51 47
27 27 29 31 30 31 32 33 33 34 33 33 32 33 31 32 37 40 41 43 47 48 47 50 54 58 61 64 67 68 68 66 65 63 70 75 78 73 74 68 69 71 58 51
30 29 28 29 28 28 31 32 33 35 34 33 34 34 31 34 38 43 47 48 48 49 51 53 52 52 55 60 65 67 69 69 67 65 63 61 62 57 56 56 52 56 63 59
32 31 30 27 32 31 30 30 31 33 34 35 33 32 33 30 33 39 46 50 51 53 54 56 56 57 57 58 60 64 67 68 69 69 66 63 59 59 57 54 50 48 49 55
32 34 32 31 28 29 33 35 32 28 32 33 32 31 27 25 26 34 39 46 51 54 57 59 60 60 62 64 63 62 63 66 69 69 69 67 64 60 56 53 51 46 43 53
28 34 36 38 38 32 32 35 30 30 30 27 30 27 16 26 33 38 44 47 49 48 52 56 58 59 63 66 67 68 66 63 66 68 68 66 65 63 59 56 52 50 47 46
22 29 36 37 38 35 33 31 29 28 23 25 26 21 21 24 32 35 37 39 43 49 48 51 54 53 54 62 67 69 70 68 65 66 67 66 64 63 60 57 54 52 50 46
20 25 24 27 22 20 27 27 28 25 24 26 24 16 25 25 27 34 36 37 43 43 41 41 46 39 38 40 45 55 68 71 69 65 65 64 63 63 59 56 54 53 52 50
25 20 19 21 16 21 24 27 27 25 25 23 23 15 19 23 29 30 36 39 39 33 39 42 41 39 41 41 35 37 51 67 71 69 64 63 62 63 59 57 55 53 51 48
27 22 19 15 17 25 23 28 27 27 24 27 18 23 21 30 31 32 34 37 38 37 37 41 43 42 43 42 40 40 41 49 66 70 66 63 61 62 61 58 55 52 51 48
18 16 13 13 20 24 27 26 26 28 28 28 26 25 26 33 36 36 37 37 39 39 40 42 43 43 41 39 40 41 45 47 53 65 67 63 61 59 59 58 55 54 51 48
16 16 16 13 21 27 23 18 22 22 26 26 27 29 31 35 37 36 36 39 38 38 39 39 37 42 41 39 39 38 35 49 47 57 63 60 58 56 58 59 55 52 47 41
17 20 19 13 17 18 17 18 20 24 24 27 29 32 35 36 41 42 42 45 40 39 40 39 38 38 40 44 42 39 37 37 45 48 55 56 56 56 58 58 56 50 43 38
6 4 6 11 17 16 14 18 22 26 24 27 32 37 39 40 46 43 47 51 45 43 41 32 25 29 35 36 33 28 35 28 35 40 53 57 57 55 55 54 54 47 42 39
10 4 13 15 21 22 20 23 27 30 32 29 36 39 41 46 48 48 48 42 41 31 21 18 21 30 26 24 22 19 14 24 28 48 52 54 55 53 51 50 51 45 40 37
16 17 19 23 28 29 31 32 30 33 37 37 40 41 46 47 51 45 34 27 27 24 19 21 26 21 22 21 19 15 19 29 33 48 44 49 50 48 50 49 44 41 37 34
14 16 19 21 24 22 26 30 34 37 38 41 43 45 45 50 43 34 22 18 18 16 18 15 12 12 21 15 22 19 16 32 34 43 45 48 45 46 47 43 40 36 35 33
17 20 21 21 21 25 24 27 30 36 39 38 41 46 46 38 27 17 12 11 15 14 10 9 10 11 11 15 22 25 25 32 38 47 48 49 48 44 40 39 37 36 35 29
17 21 22 23 25 27 29 32 39 41 45 45 42 38 29 19 13 9 6 12 11 10 8 9 11 11 12 6 23 28 30 32 48 48 50 47 43 41 40 39 40 34 28 30
14 17 22 24 29 30 28 43 44 45 44 38 29 19 12 11 7 6 14 14 10 8 6 4 7 10 10 11 19 23 31 42 48 47 48 45 43 42 40 43 35 34 32 28
17 21 23 30 30 37 43 48 38 29 19 14 15 13 7 6 6 15 15 10 10 7 3 8 11 12 15 18 26 30 35 41 33 46 47 47 41 45 38 35 33 30 24 19
Wind_Direction
261 257 253 252 251 249 249 249 249 248 249 246 243 244 243 244 245 249 251 247 243 219 220 220 221 224 220 224 229 233 241 251 252 252 249 254 256 253 250 255 262 268 273 272
262 258 256 255 253 251 250 249 248 249 247 248 245 243 246 243 242 242 242 242 241 251 224 223 221 220 223 225 228 232 235 238 241 246 248 255 257 258 258 259 259 261 264 267
267 261 259 256 256 255 255 256 255 254 252 252 249 246 246 248 247 246 243 241 242 240 247 246 229 224 222 222 225 228 238 240 242 239 242 242 249 254 256 262 266 264 262 264
273 268 262 259 257 257 256 255 255 255 255 254 254 250 243 247 250 251 249 245 241 241 241 239 242 241 235 229 226 227 228 231 236 241 244 245 247 252 255 256 255 253 265 262
273 272 269 266 261 257 255 253 253 253 254 255 255 256 252 250 251 252 253 251 248 242 240 242 240 239 240 240 239 243 235 231 233 238 239 242 246 250 254 256 260 261 259 263
274 268 267 266 261 259 257 254 254 254 254 253 251 251 249 255 254 250 248 250 249 249 247 242 241 242 242 245 245 244 243 241 243 237 240 244 248 251 258 260 263 265 259 258
272 271 264 259 259 253 252 254 256 257 256 259 257 253 257 259 259 257 254 255 257 254 250 250 248 244 243 244 245 247 249 247 246 245 242 247 249 249 250 255 258 259 258 255
270 271 272 255 248 247 246 250 254 256 256 256 260 262 264 269 268 262 259 258 258 260 261 259 254 250 248 244 242 243 245 248 249 249 248 248 246 250 245 249 254 255 255 262
277 273 270 261 247 244 248 251 250 254 258 258 256 258 265 271 274 273 271 267 265 263 263 262 260 257 252 248 246 243 242 243 246 249 250 251 251 253 252 251 251 255 252 255
272 277 272 270 265 255 254 252 252 256 260 259 260 261 268 266 261 274 277 278 279 278 274 271 266 260 255 252 248 246 242 240 241 243 246 248 250 251 253 255 256 255 250 251
265 261 264 259 265 259 261 255 255 255 254 265 264 261 265 265 262 265 267 273 279 286 286 279 269 262 258 254 248 246 243 239 239 240 242 245 247 248 249 251 253 253 252 252
254 252 256 261 261 258 261 250 257 252 255 260 271 271 277 276 276 277 284 292 296 290 282 274 272 267 263 254 247 245 242 239 236 234 236 238 240 244 245 247 249 251 253 253
276 260 261 260 257 242 239 245 248 245 250 257 267 275 289 284 291 293 288 288 297 289 275 268 265 261 257 263 255 244 239 236 234 232 231 232 234 238 240 242 244 247 250 252
285 269 263 259 241 243 239 242 243 245 253 268 267 275 281 290 288 291 288 287 294 272 264 259 253 254 251 251 250 243 238 234 230 229 227 228 229 232 234 237 239 241 246 251
282 287 281 234 241 249 246 240 239 241 263 261 277 278 296 290 299 294 293 285 286 269 267 259 253 251 249 246 246 242 237 238 230 226 223 223 224 227 229 232 235 239 243 248
288 282 269 254 243 251 246 239 241 255 264 270 277 280 286 286 294 289 293 292 280 275 265 261 262 260 256 248 250 249 239 234 228 226 221 218 219 223 225 227 231 236 240 244
286 280 268 254 257 251 252 248 252 257 265 270 275 281 284 287 289 288 298 296 290 270 262 265 268 261 252 256 261 247 239 227 219 219 218 214 214 217 220 223 227 232 237 240
282 275 267 256 248 260 265 256 262 265 270 275 280 283 282 283 284 285 289 294 290 278 269 268 265 256 255 259 256 252 231 224 218 212 208 209 209 211 215 219 224 228 232 234
301 289 248 252 271 265 276 273 272 272 273 277 280 282 284 282 287 294 299 299 292 278 271 261 259 256 247 250 257 239 214 207 211 200 195 201 205 207 211 216 222 224 227 229
270 263 273 271 273 277 288 282 273 273 277 273 275 281 283 283 290 300 298 287 274 279 277 263 251 240 246 245 207 242 221 198 200 190 191 199 200 202 206 213 217 220 221 223
272 280 285 288 287 284 283 281 277 278 279 281 282 284 289 293 300 303 295 271 270 270 268 239 241 236 233 218 216 225 233 196 190 177 184 193 197 195 202 208 211 213 217 224
284 287 293 300 303 304 288 279 276 277 280 286 287 290 293 297 303 300 293 272 261 250 247 207 209 215 211 188 204 227 227 183 182 174 179 186 185 194 201 201 205 207 213 219
305 315 318 309 312 300 302 296 288 286 287 287 289 295 297 300 297 292 286 254 217 212 184 195 203 212 209 205 193 188 189 180 178 182 180 178 185 190 194 193 196 204 210 209
336 331 325 316 308 312 309 306 304 296 291 296 298 296 301 293 274 283 251 173 131 128 152 187 214 233 257 181 169 168 167 172 176 180 181 181 181 181 185 192 194 199 199 209
332 333 329 322 320 310 312 315 302 292 293 293 291 291 282 270 254 229 167 127 122 103 83 128 164 160 161 157 155 155 155 170 178 180 179 178 176 179 189 195 184 191 202 210
315 324 334 341 333 326 325 314 314 312 289 290 302 271 258 250 213 176 155 160 121 111 152 147 149 140 145 134 144 153 165 170 161 184 179 174 180 184 194 184 190 198 203 202
Height
5697 5698 5699 5699 5701 5702 5704 5705 5706 5708 5710 5714 5717 5719 5726 5731 5733 5734 5736 5741 5743 5751 5755 5764 5771 5776 5781 5786 5791 5797 5800 5801 5804 5810 5815 5820 5826 5830 5833 5836 5837 5839 5843 5842
5692 5691 5691 5692 5693 5694 5695 5697 5699 5700 5703 5705 5709 5712 5715 5721 5725 5727 5729 5731 5735 5737 5745 5748 5758 5763 5769 5775 5780 5785 5790 5795 5799 5804 5809 5810 5815 5819 5822 5827 5831 5834 5834 5835
5685 5685 5685 5685 5685 5687 5688 5689 5690 5693 5695 5697 5701 5705 5707 5710 5713 5715 5720 5724 5727 5729 5732 5738 5743 5746 5754 5760 5765 5773 5778 5783 5788 5792 5796 5800 5803 5808 5814 5819 5824 5829 5829 5828
5680 5679 5678 5678 5680 5681 5681 5681 5682 5683 5685 5688 5690 5693 5700 5701 5703 5704 5708 5712 5716 5719 5721 5725 5729 5734 5738 5744 5749 5757 5762 5769 5773 5778 5783 5788 5792 5796 5803 5808 5811 5817 5820 5821
5671 5671 5671 5672 5672 5672 5673 5673 5674 5675 5677 5679 5682 5684 5687 5692 5691 5694 5695 5698 5703 5706 5708 5709 5713 5719 5724 5730 5737 5743 5750 5756 5762 5763 5768 5773 5779 5786 5792 5795 5801 5805 5809 5810
5663 5662 5663 5664 5664 5663 5663 5664 5665 5667 5669 5671 5674 5676 5679 5679 5679 5682 5685 5686 5687 5688 5691 5696 5701 5706 5713 5718 5723 5729 5735 5742 5747 5752 5754 5759 5766 5773 5777 5783 5787 5793 5799 5800
5655 5654 5654 5654 5656 5656 5655 5656 5656 5658 5660 5661 5664 5668 5671 5670 5668 5670 5673 5672 5671 5674 5680 5685 5691 5697 5703 5707 5710 5713 5717 5725 5730 5735 5742 5747 5752 5761 5766 5773 5776 5780 5786 5788
5646 5647 5647 5646 5646 5647 5647 5648 5649 5648 5650 5653 5654 5658 5660 5657 5656 5658 5658 5661 5664 5667 5666 5669 5676 5684 5688 5692 5696 5701 5706 5711 5715 5721 5729 5733 5740 5745 5752 5759 5762 5766 5773 5775
5635 5636 5637 5638 5638 5638 5639 5639 5641 5640 5641 5643 5648 5652 5650 5648 5642 5641 5644 5647 5651 5652 5653 5655 5661 5666 5671 5673 5678 5683 5691 5698 5702 5706 5713 5720 5727 5733 5740 5747 5751 5756 5762 5765
5626 5626 5627 5628 5631 5631 5630 5631 5633 5634 5633 5634 5637 5641 5642 5638 5635 5632 5632 5632 5634 5634 5637 5639 5643 5648 5651 5654 5661 5666 5673 5681 5686 5694 5700 5707 5713 5721 5728 5733 5738 5744 5750 5751
5617 5618 5619 5620 5620 5622 5622 5622 5624 5624 5626 5626 5627 5633 5634 5628 5627 5624 5623 5623 5623 5622 5619 5620 5623 5624 5628 5634 5640 5646 5656 5664 5672 5679 5687 5694 5701 5708 5716 5722 5729 5733 5738 5742
5609 5608 5608 5610 5609 5613 5614 5613 5615 5616 5620 5619 5618 5624 5622 5619 5614 5614 5614 5612 5610 5608 5606 5604 5604 5606 5608 5611 5616 5624 5635 5645 5654 5662 5671 5680 5689 5695 5705 5712 5719 5723 5728 5733
5602 5600 5601 5601 5602 5601 5602 5605 5607 5610 5611 5611 5612 5616 5608 5608 5605 5603 5603 5601 5597 5592 5590 5591 5591 5593 5594 5596 5598 5602 5611 5623 5634 5645 5654 5664 5675 5683 5692 5700 5707 5713 5717 5721
5593 5594 5594 5594 5595 5595 5595 5597 5599 5601 5602 5602 5601 5604 5602 5600 5598 5595 5591 5587 5585 5581 5581 5580 5581 5582 5583 5584 5585 5587 5592 5600 5612 5625 5637 5649 5660 5670 5679 5687 5695 5701 5706 5711
5585 5586 5585 5587 5588 5587 5590 5592 5593 5594 5596 5593 5597 5593 5593 5589 5588 5584 5581 5578 5574 5572 5571 5571 5571 5570 5570 5570 5571 5572 5578 5583 5592 5605 5620 5635 5645 5656 5667 5676 5683 5691 5696 5702
5581 5581 5581 5584 5583 5582 5582 5586 5589 5588 5588 5586 5586 5584 5583 5580 5578 5575 5573 5568 5565 5562 5560 5559 5558 5557 5558 5558 5559 5559 5562 5568 5575 5588 5603 5619 5633 5645 5657 5665 5673 5680 5687 5694
5577 5577 5577 5579 5577 5575 5578 5583 5582 5582 5581 5581 5578 5577 5574 5572 5568 5565 5562 5557 5552 5548 5547 5546 5544 5543 5543 5544 5544 5546 5549 5553 5561 5574 5589 5607 5621 5634 5645 5654 5664 5672 5680 5687
5574 5572 5572 5574 5573 5574 5576 5576 5576 5574 5574 5573 5570 5567 5564 5561 5557 5554 5552 5546 5541 5536 5533 5531 5530 5528 5529 5530 5530 5533 5537 5543 5551 5561 5579 5598 5610 5623 5634 5645 5655 5664 5673 5679
5570 5569 5569 5569 5569 5571 5572 5570 5568 5566 5568 5565 5560 5556 5554 5550 5545 5544 5538 5529 5523 5517 5515 5516 5516 5515 5517 5518 5518 5523 5528 5535 5545 5555 5572 5584 5599 5614 5627 5638 5646 5657 5665 5671
5569 5568 5568 5567 5565 5564 5565 5562 5560 5558 5557 5558 5553 5549 5544 5539 5534 5534 5525 5516 5508 5506 5505 5506 5506 5506 5510 5509 5513 5519 5522 5530 5540 5551 5563 5578 5593 5607 5620 5630 5639 5650 5658 5664
5566 5566 5565 5563 5560 5560 5557 5553 5552 5550 5548 5545 5541 5538 5533 5527 5521 5513 5506 5503 5501 5500 5499 5499 5499 5501 5502 5506 5510 5515 5520 5527 5536 5548 5561 5575 5591 5602 5612 5622 5634 5644 5652 5657
5564 5563 5561 5559 5555 5552 5547 5545 5544 5541 5538 5533 5529 5525 5520 5514 5508 5501 5497 5496 5495 5496 5495 5496 5495 5498 5501 5503 5510 5513 5517 5525 5535 5546 5559 5573 5587 5599 5610 5619 5630 5640 5646 5651
5560 5559 5556 5553 5551 5545 5542 5538 5535 5530 5526 5523 5519 5516 5509 5504 5499 5495 5494 5493 5493 5493 5493 5493 5494 5496 5498 5502 5504 5511 5517 5525 5535 5547 5559 5571 5583 5595 5608 5618 5627 5635 5640 5646
5557 5554 5551 5548 5545 5541 5535 5531 5526 5521 5515 5512 5507 5502 5499 5496 5493 5492 5492 5492 5493 5493 5494 5495 5495 5495 5494 5496 5503 5508 5516 5523 5535 5547 5560 5573 5583 5595 5606 5615 5621 5630 5637 5643
5554 5552 5548 5544 5539 5534 5530 5523 5515 5507 5504 5500 5497 5495 5493 5492 5491 5491 5491 5492 5493 5494 5493 5494 5494 5494 5496 5499 5504 5510 5518 5528 5540 5551 5562 5573 5584 5595 5603 5611 5618 5626 5633 5640
5552 5548 5544 5539 5534 5526 5518 5509 5501 5497 5494 5494 5492 5491 5490 5490 5490 5490 5491 5492 5493 5493 5493 5493 5493 5495 5497 5501 5506 5514 5524 5533 5537 5554 5564 5575 5581 5592 5603 5611 5619 5626 5634 5639